TimeEST,TemperatureF,Dew PointF,Humidity,Sea Level PressureIn,VisibilityMPH,Wind Direction,Wind SpeedMPH,Gust SpeedMPH,PrecipitationIn,Events,Conditions,WindDirDegrees,DateUTC
12:51 AM,15.1,12.0,88,30.39,5.0,Calm,Calm,-,N/A,,Clear,0,2013-01-08 05:51:00
1:51 AM,14.0,10.9,88,30.39,5.0,Calm,Calm,-,N/A,,Clear,0,2013-01-08 06:51:00
2:51 AM,14.0,10.0,84,30.41,5.0,Calm,Calm,-,N/A,,Clear,0,2013-01-08 07:51:00
3:51 AM,12.9,10.0,88,30.40,5.0,Calm,Calm,-,N/A,,Clear,0,2013-01-08 08:51:00
4:51 AM,14.0,10.0,84,30.38,5.0,Calm,Calm,-,N/A,,Clear,0,2013-01-08 09:51:00
5:51 AM,12.9,9.0,84,30.43,5.0,Calm,Calm,-,N/A,,Clear,0,2013-01-08 10:51:00
6:51 AM,12.0,9.0,88,30.47,5.0,Calm,Calm,-,N/A,,Clear,0,2013-01-08 11:51:00
7:51 AM,12.0,9.0,88,30.48,4.0,Calm,Calm,-,N/A,,Clear,0,2013-01-08 12:51:00
8:51 AM,18.0,15.1,88,30.49,3.0,Calm,Calm,-,N/A,,Clear,0,2013-01-08 13:51:00
9:51 AM,24.1,19.9,84,30.50,4.0,Calm,Calm,-,N/A,,Clear,0,2013-01-08 14:51:00
10:51 AM,32.0,26.6,80,30.38,6.0,Calm,Calm,-,N/A,,Haze,0,2013-01-08 15:51:00
11:51 AM,43.0,28.0,56,30.44,10.0,Calm,Calm,-,N/A,,Clear,0,2013-01-08 16:51:00
12:51 PM,45.0,25.0,46,30.41,10.0,West,8.1,-,N/A,,Clear,280,2013-01-08 17:51:00
1:51 PM,46.9,23.0,39,30.39,10.0,West,3.5,-,N/A,,Clear,280,2013-01-08 18:51:00
2:51 PM,48.0,24.1,39,30.38,10.0,West,3.5,-,N/A,,Clear,260,2013-01-08 19:51:00
3:51 PM,48.0,23.0,37,30.39,10.0,NW,3.5,-,N/A,,Clear,310,2013-01-08 20:51:00
4:51 PM,44.1,24.1,45,30.40,10.0,North,3.5,-,N/A,,Clear,10,2013-01-08 21:51:00
5:51 PM,30.9,24.1,76,30.42,10.0,Calm,Calm,-,N/A,,Clear,0,2013-01-08 22:51:00
6:51 PM,28.0,23.0,81,30.43,10.0,Calm,Calm,-,N/A,,Clear,0,2013-01-08 23:51:00
7:51 PM,26.1,21.9,84,30.43,10.0,Calm,Calm,-,N/A,,Clear,0,2013-01-09 00:51:00
8:51 PM,25.0,21.9,88,30.45,10.0,Calm,Calm,-,N/A,,Clear,0,2013-01-09 01:51:00
9:51 PM,23.0,19.9,88,30.43,7.0,Calm,Calm,-,N/A,,Clear,0,2013-01-09 02:51:00
10:51 PM,23.0,19.0,85,30.41,7.0,Calm,Calm,-,N/A,,Clear,0,2013-01-09 03:51:00
11:51 PM,21.0,19.0,92,30.40,6.0,Calm,Calm,-,N/A,,Clear,0,2013-01-09 04:51:00